Date String (YYYY-MM-DD hh:mm:ss) UTC,Instrument flags,absolute air pressure of the measurement (hPa),sample flow rate (lpm),inlet stack bypass flow (lpm),air temperature of the measurement (°C),ambient temperature measured by the external sensor (°C),aerosol sample conditioner tube jacket temperature (°C),OPC LED temperature (°C),internal box temperature (°C),relative humidity of the measurement (%),span deviation,mass concentration of particles derived from Lorenz-Mie calculation of OPC scattering (μg/m³),mass concentration of particles derived from Lorenz-Mie calculation of OPC scattering (μg/m³),mass concentration of particles derived from Lorenz-Mie calculation of OPC scattering (μg/m³)
DateTimeUTC,F1_M11,P_M11,Q1_M11,Q2_M11,T1_M11,T2_M11,T3_M11,T4_M11,T5_M11,U1_M11,ZSPAN_M11,X0_M11,X2_M11,X1_M11
2023-08-29 07:00:00,SystemResetWarning,0838.5,5.00,000.00,028.5,027.4,000.0,037.0,030.2,29.0,0000.0,0005.95,0003.39,0002.86
2023-08-29 07:01:00,SystemResetWarning,0838.5,5.00,000.00,028.6,027.5,000.0,037.1,030.2,28.9,0000.0,0006.12,0003.36,0002.85
2023-08-29 07:02:00,SystemResetWarning,0838.5,5.01,000.00,028.6,027.5,000.0,037.1,030.2,28.8,0000.0,0006.34,0003.34,0002.85
2023-08-29 07:03:00,SystemResetWarning,0838.5,5.00,000.00,028.6,027.6,000.0,037.1,030.3,28.8,0000.0,0006.51,0003.37,0002.85
2023-08-29 07:04:00,SystemResetWarning,0838.5,5.01,000.00,028.6,027.6,000.0,037.1,030.3,28.8,0000.0,0006.46,0003.37,0002.83
2023-08-29 07:05:00,SystemResetWarning,0838.6,5.00,000.00,028.7,027.6,000.0,037.2,030.3,28.8,0000.0,0006.02,0003.35,0002.82
2023-08-29 07:06:00,SystemResetWarning,0838.5,5.01,000.00,028.7,027.6,000.0,037.2,030.3,28.9,0000.0,0006.41,0003.35,0002.82
2023-08-29 07:07:00,SystemResetWarning,0838.6,4.99,000.00,028.7,027.7,000.0,037.2,030.4,28.7,0000.0,0006.87,0003.36,0002.81
2023-08-29 07:08:00,SystemResetWarning,0838.6,4.99,000.00,028.7,026.6,000.0,037.1,030.2,28.7,0000.0,0006.74,0003.33,0002.81
2023-08-29 07:09:00,SystemResetWarning,0838.5,5.00,000.00,028.6,024.8,000.0,037.0,029.9,28.8,0000.0,0006.63,0003.30,0002.79
2023-08-29 07:10:00,SystemResetWarning,0838.5,5.01,000.00,028.5,024.3,000.0,036.9,029.7,29.1,0000.0,0006.51,0003.26,0002.77
2023-08-29 07:11:00,SystemResetWarning,0838.6,5.01,000.00,028.4,024.5,000.0,036.9,029.5,29.7,0000.0,0006.34,0003.23,0002.76
2023-08-29 07:12:00,SystemResetWarning,0838.6,5.00,000.00,028.3,024.9,000.0,036.9,029.5,30.2,0000.0,0006.09,0003.22,0002.76
2023-08-29 07:13:00,SystemResetWarning,0838.6,5.00,000.00,028.3,025.3,000.0,036.9,029.6,30.6,0000.0,0005.80,0003.22,0002.75
2023-08-29 07:14:00,SystemResetWarning,0838.6,5.00,000.00,028.3,025.6,000.0,036.9,029.7,30.4,0000.0,0005.63,0003.18,0002.73
2023-08-29 07:15:00,SystemResetWarning,0838.6,5.01,000.00,028.3,026.0,000.0,036.9,029.8,30.4,0000.0,0005.50,0003.14,0002.72
2023-08-29 07:16:00,SystemResetWarning,0838.6,4.99,000.00,028.3,026.3,000.0,036.9,029.9,30.8,0000.0,0005.62,0003.13,0002.72
2023-08-29 07:17:00,SystemResetWarning,0838.6,5.00,000.00,028.3,026.5,000.0,036.9,029.9,31.1,0000.0,0005.50,0003.12,0002.72
2023-08-29 07:18:00,SystemResetWarning,0838.6,5.00,000.00,028.3,026.7,000.0,036.9,029.9,31.2,0000.0,0004.97,0003.09,0002.72
2023-08-29 07:19:00,SystemResetWarning,0838.5,5.00,000.00,028.4,026.8,000.0,036.9,030.0,31.0,0000.0,0005.01,0003.09,0002.70
2023-08-29 07:20:00,SystemResetWarning,0838.6,5.00,000.00,028.4,027.0,000.0,036.9,030.0,30.8,0000.0,0005.00,0003.09,0002.70
2023-08-29 07:21:00,SystemResetWarning,0838.6,5.00,000.00,028.4,027.1,000.0,037.0,030.0,30.6,0000.0,0004.96,0003.09,0002.71
2023-08-29 07:22:00,SystemResetWarning,0838.5,4.99,000.00,028.4,027.2,000.0,037.0,030.0,30.6,0000.0,0005.00,0003.11,0002.71
2023-08-29 07:23:00,SystemResetWarning,0838.5,5.00,000.00,028.5,027.2,000.0,037.0,030.1,30.7,0000.0,0004.95,0003.12,0002.69
2023-08-29 07:24:00,SystemResetWarning,0838.5,5.00,000.00,028.5,027.3,000.0,037.0,030.1,30.6,0000.0,0004.90,0003.12,0002.69
2023-08-29 07:25:00,SystemResetWarning,0838.5,5.01,000.00,028.5,027.4,000.0,037.0,030.2,30.5,0000.0,0004.94,0003.13,0002.69
2023-08-29 07:26:00,SystemResetWarning,0838.4,5.00,000.00,028.5,027.4,000.0,037.0,030.2,30.6,0000.0,0005.06,0003.16,0002.69
2023-08-29 07:27:00,SystemResetWarning,0838.4,5.01,000.00,028.6,027.5,000.0,037.1,030.2,30.6,0000.0,0005.09,0003.16,0002.69
2023-08-29 07:28:00,SystemResetWarning,0838.4,5.01,000.00,028.6,027.5,000.0,037.1,030.2,30.6,0000.0,0004.55,0003.15,0002.68
2023-08-29 07:29:00,SystemResetWarning,0838.4,5.01,000.00,028.6,027.5,000.0,037.1,030.2,30.4,0000.0,0004.10,0003.12,0002.66
2023-08-29 07:30:00,SystemResetWarning,0838.4,4.99,000.00,028.6,027.6,000.0,037.1,030.3,30.2,0000.0,0004.05,0003.11,0002.64
2023-08-29 07:31:00,SystemResetWarning,0838.5,4.99,000.00,028.7,027.6,000.0,037.2,030.3,30.2,0000.0,0004.02,0003.10,0002.63
2023-08-29 07:32:00,SystemResetWarning,0838.5,5.00,000.00,028.7,027.6,000.0,037.2,030.3,30.2,0000.0,0004.03,0003.10,0002.60
2023-08-29 07:33:00,SystemResetWarning,0838.6,5.00,000.00,028.7,027.7,000.0,037.2,030.4,30.2,0000.0,0004.01,0003.07,0002.58
2023-08-29 07:34:00,SystemResetWarning,0838.6,5.01,000.00,028.7,027.7,000.0,037.2,030.4,30.4,0000.0,0003.97,0003.06,0002.57
2023-08-29 07:35:00,SystemResetWarning,0838.6,5.01,000.00,028.7,027.7,000.0,037.2,030.4,30.8,0000.0,0004.05,0003.07,0002.56
2023-08-29 07:36:00,SystemResetWarning,0838.6,4.98,000.00,028.8,027.1,000.0,037.2,030.3,30.9,0000.0,0004.07,0003.07,0002.55
2023-08-29 07:37:00,SystemResetWarning,0838.6,5.00,000.00,028.7,025.2,000.0,037.1,030.0,31.1,0000.0,0004.88,0003.06,0002.53
2023-08-29 07:38:00,SystemResetWarning,0838.5,5.01,000.00,028.6,024.4,000.0,036.9,029.7,31.3,0000.0,0005.11,0003.05,0002.50
2023-08-29 07:39:00,SystemResetWarning,0838.5,5.01,000.00,028.4,024.4,000.0,037.0,029.5,31.6,0000.0,0005.22,0003.08,0002.50
2023-08-29 07:40:00,SystemResetWarning,0838.6,4.98,000.00,028.4,024.8,000.0,037.0,029.5,31.8,0000.0,0006.36,0003.11,0002.51
2023-08-29 07:41:00,SystemResetWarning,0838.6,5.00,000.00,028.3,025.2,000.0,037.0,029.6,31.9,0000.0,0006.85,0003.10,0002.51
2023-08-29 07:42:00,SystemResetWarning,0838.6,5.00,000.00,028.3,025.6,000.0,037.0,029.7,31.9,0000.0,0007.86,0003.11,0002.52
2023-08-29 07:43:00,SystemResetWarning,0838.6,5.01,000.00,028.3,025.9,000.0,037.0,029.8,31.9,0000.0,0007.91,0003.13,0002.55
2023-08-29 07:44:00,SystemResetWarning,0838.5,5.01,000.00,028.3,026.2,000.0,037.0,029.9,31.9,0000.0,0007.93,0003.14,0002.59
2023-08-29 07:45:00,SystemResetWarning,0838.6,4.99,000.00,028.3,026.5,000.0,037.0,029.9,31.9,0000.0,0007.93,0003.14,0002.60
2023-08-29 07:46:00,SystemResetWarning,0838.6,5.00,000.00,028.4,026.7,000.0,037.0,029.9,31.9,0000.0,0007.93,0003.13,0002.60
2023-08-29 07:47:00,SystemResetWarning,0838.6,5.00,000.00,028.4,026.8,000.0,037.0,030.0,31.8,0000.0,0008.00,0003.14,0002.59
2023-08-29 07:48:00,SystemResetWarning,0838.6,5.01,000.00,028.4,026.9,000.0,037.0,030.0,31.8,0000.0,0007.66,0003.14,0002.59
2023-08-29 07:49:00,SystemResetWarning,0838.6,5.00,000.00,028.4,027.0,000.0,037.0,030.0,31.8,0000.0,0007.39,0003.13,0002.61
2023-08-29 07:50:00,SystemResetWarning,0838.6,5.00,000.00,028.4,027.1,000.0,037.0,030.1,31.7,0000.0,0007.35,0003.12,0002.62
2023-08-29 07:51:00,SystemResetWarning,0838.6,5.00,000.00,028.5,027.2,000.0,037.0,030.1,31.6,0000.0,0006.61,0003.08,0002.58
2023-08-29 07:52:00,SystemResetWarning,0838.6,4.99,000.00,028.5,027.3,000.0,037.0,030.1,31.6,0000.0,0005.94,0003.09,0002.55
2023-08-29 07:53:00,SystemResetWarning,0838.6,5.00,000.00,028.5,027.3,000.0,037.0,030.1,31.5,0000.0,0005.28,0003.09,0002.53
2023-08-29 07:54:00,SystemResetWarning,0838.6,5.00,000.00,028.5,027.4,000.0,037.1,030.2,31.4,0000.0,0005.45,0003.08,0002.50
2023-08-29 07:55:00,SystemResetWarning,0838.6,5.01,000.00,028.6,027.4,000.0,037.1,030.2,31.5,0000.0,0005.35,0003.03,0002.45
2023-08-29 07:56:00,SystemResetWarning,0838.6,5.01,000.00,028.6,027.4,000.0,037.1,030.2,31.7,0000.0,0005.30,0003.00,0002.42
2023-08-29 07:57:00,SystemResetWarning,0838.6,5.00,000.00,028.6,027.5,000.0,037.1,030.2,31.9,0000.0,0005.27,0002.97,0002.42
2023-08-29 07:58:00,SystemResetWarning,0838.7,5.00,000.00,028.6,027.5,000.0,037.1,030.2,32.1,0000.0,0005.22,0002.91,0002.42
2023-08-29 07:59:00,SystemResetWarning,0838.7,4.99,000.00,028.6,027.5,000.0,037.1,030.3,32.0,0000.0,0005.32,0002.89,0002.41
